Orbital Elements at Epoch 2459000.5 (2020-May-31.0) TDB
Reference: JPL 21 (heliocentric ecliptic J2000)
Element | Value | Uncertainty (1-sigma) | Units |
e | .06338523622917323 | 5.1445e-08 | |
a | 2.777476834398199 | 1.2861e-08 | au |
q | 2.601425809128812 | 1.4464e-07 | au |
i | .8583069605362394 | 3.8293e-06 | deg |
node | 300.1185112604393 | 0.00032693 | deg |
peri | 77.1874833442434 | 0.00032894 | deg |
M | 54.12006775421678 | 3.3768e-05 | deg |
tp | 2458746.326701003060 (2019-Sep-19.82670100) | 0.00015867 | TDB |
period | 1690.729362247871 4.63 | 1.1743e-05 3.215e-08 | d yr |
n | .2129258579394221 | 1.4789e-09 | deg/d |
Q | 2.953527859667584 | 1.3676e-08 | au |
|
| | Orbit Determination Parameters
Additional Information
|